Knoxville, TN

10:21 AM EDT on September 21, 2019 (GMT -0400)
McGhee Tyson

Weather History for KTYS - July, 2019

Change the Weather History Date:

Friday, July 19, 2019

  Actual Average Record
Temperature  
Mean Temperature 82 °F 79 °F  
Max Temperature 93 °F 88 °F 100 °F (1887)
Min Temperature 70 °F 69 °F 56 °F (1984)
Degree Days  
Heating Degree Days 0 0  
Month to date heating degree days 0 0  
Since 1 June heating degree days 0 4  
Since 1 July heating degree days 0 0  
Cooling Degree Days 17 14  
Month to date cooling degree days 302 256  
Year to date cooling degree days 881 723  
Since 1 June cooling degree days 581 561  
Growing Degree Days 32 (Base 50)    
Moisture  
Dew Point 69 °F    
Average Humidity 67    
Maximum Humidity 93    
Minimum Humidity 41    
Precipitation  
Precipitation 0.00 in 0.17 in 2.57 in (1937)
Month to date precipitation 1.65 3.20  
Year to date precipitation 40.87 28.45  
Snow  
Snow 0.00 in 0.00 in - ()
Month to date snowfall 0.0 0.0  
Since 1 June snowfall 0.0 0.0  
Since 1 July snowfall 0.0 0.0  
Snow Depth 0.00 in    
Sea Level Pressure  
Sea Level Pressure 30.03 in    
Wind  
Wind Speed 4 mph (WSW)    
Max Wind Speed 22 mph    
Max Gust Speed 26 mph    
Visibility 10 miles    
Events      
T = Trace of Precipitation, MM = Missing Value Source: NWS Daily Summary

Daily Weather History Graph

Daily Weather History Graph

Search for Another Location

Airport or City:

Astronomy

Jul. 19, 2019 Rise Set
Actual Time 6:33 AM EDT 8:50 PM EDT
Civil Twilight 6:04 AM EDT 9:19 PM EDT
Nautical Twilight 5:28 AM EDT 9:55 PM EDT
Astronomical Twilight 4:50 AM EDT 10:33 PM EDT
Moon 10:52 PM EDT (7/19) 8:56 AM EDT (7/19)
Length of Visible Light 15h 14m
Length of Day
14h 16m
Waning Gibbous, 93% of the Moon is Illuminated
Jul 19
Waning Gibbous
Jul 24
Last Quarter
Jul 31
New
Aug 7
First Quarter
Aug 15
Full

Hourly Weather History & Observations

Time (EDT) Temp. Heat Index Dew Point Humidity Pressure Visibility Wind Dir Wind Speed Gust Speed Precip Events Conditions
12:53 AM 73.9 °F - 68.0 °F 82% 30.01 in 10.0 mi West 4.6 mph - N/A   Mostly Cloudy
1:53 AM 73.0 °F - 69.1 °F 87% 30.02 in 10.0 mi WSW 6.9 mph - N/A   Scattered Clouds
2:53 AM 73.0 °F - 69.1 °F 87% 30.02 in 10.0 mi West 4.6 mph - N/A   Scattered Clouds
3:53 AM 72.0 °F - 69.1 °F 91% 30.02 in 10.0 mi West 5.8 mph - N/A   Partly Cloudy
4:53 AM 71.1 °F - 69.1 °F 93% 30.03 in 10.0 mi SSW 3.5 mph - N/A   Scattered Clouds
5:22 AM 72.0 °F - 69.1 °F 91% 30.06 in 10.0 mi WSW 3.5 mph - N/A   Mostly Cloudy
5:37 AM 72.0 °F - 69.1 °F 91% 30.05 in 10.0 mi Calm Calm - N/A   Partly Cloudy
5:53 AM 71.1 °F - 69.1 °F 93% 30.02 in 10.0 mi Calm Calm - N/A   Partly Cloudy
6:53 AM 71.1 °F - 69.1 °F 93% 30.04 in 10.0 mi SSE 3.5 mph - N/A   Scattered Clouds
7:53 AM 73.0 °F - 69.1 °F 87% 30.06 in 10.0 mi Calm Calm - N/A   Scattered Clouds
8:53 AM 75.9 °F - 70.0 °F 82% 30.07 in 10.0 mi Calm Calm - N/A   Scattered Clouds
9:53 AM 80.1 °F 83.6 °F 71.1 °F 74% 30.08 in 10.0 mi West 6.9 mph - N/A   Mostly Cloudy
10:53 AM 82.9 °F 87.0 °F 70.0 °F 65% 30.08 in 10.0 mi Calm Calm - N/A   Scattered Clouds
11:53 AM 86.0 °F 90.7 °F 70.0 °F 59% 30.07 in 10.0 mi Calm Calm - N/A   Scattered Clouds
12:53 PM 86.0 °F 90.7 °F 70.0 °F 59% 30.06 in 10.0 mi SW 3.5 mph - N/A   Mostly Cloudy
1:53 PM 89.1 °F 94.1 °F 70.0 °F 53% 30.04 in 10.0 mi North 4.6 mph - N/A   Scattered Clouds
2:53 PM 90.0 °F 93.6 °F 68.0 °F 48% 30.01 in 10.0 mi Variable 3.5 mph - N/A   Scattered Clouds
3:53 PM 90.0 °F 93.6 °F 68.0 °F 48% 30.00 in 10.0 mi Variable 6.9 mph - N/A   Scattered Clouds
4:53 PM 93.0 °F 96.4 °F 66.9 °F 42% 29.98 in 10.0 mi NW 3.5 mph - N/A   Scattered Clouds
5:53 PM 91.9 °F 95.4 °F 66.9 °F 44% 29.96 in 10.0 mi WNW 5.8 mph - N/A   Scattered Clouds
6:53 PM 91.0 °F 95.2 °F 68.0 °F 47% 29.96 in 10.0 mi NW 5.8 mph - N/A   Scattered Clouds
7:53 PM 89.1 °F 94.1 °F 70.0 °F 53% 29.98 in 10.0 mi SW 5.8 mph - N/A   Mostly Cloudy
8:53 PM 82.9 °F 85.4 °F 66.9 °F 58% 29.99 in 10.0 mi South 15.0 mph - N/A   Mostly Cloudy
9:53 PM 78.1 °F - 66.9 °F 68% 30.02 in 10.0 mi WSW 8.1 mph - N/A   Partly Cloudy
10:53 PM 75.0 °F - 66.9 °F 76% 30.02 in 10.0 mi SW 3.5 mph - N/A   Mostly Cloudy
11:53 PM 73.9 °F - 66.9 °F 79% 30.01 in 10.0 mi SW 4.6 mph - N/A   Mostly Cloudy